User: anonymous   Login
Location: Unspecified
(0.0000°N, 0.0000°E)
Time: 10:52:27
(UTC+00:00)
Language:

N. Korean satellite - Orbit

View from above orbital plane
View from above orbital plane
View from above satellite
View from above satellite

Ground track
Ground track

The orbit data is extracted from the following two-line orbital elements,

1 39026U 12072A   17016.51491629  .00001353  00000-0  56188-4 0  9998
2 39026  97.2333  39.5327 0041125 356.3570   3.7362 15.24790408226876
Epoch (UTC): 16 January 2017 12:21:28
Eccentricity: 0.0041125
inclination: 97.2333°
perigee height: 463 km
apogee height: 519 km
right ascension of ascending node: 39.5327°
argument of perigee: 356.3570°
revolutions per day: 15.24790408
mean anomaly at epoch: 3.7362°
orbit number at epoch: 22687

The dashed part of the orbit path shows where the satellite is in the earth's shadow,  

DLR